This demonstration page uses our WeatherBlox Daily Observations layout. Learn more.

Left ArrowRight Arrow

36.17497, -115.13722

Hourly Observations for March 1, 2021

Temp ( °F °C ) Dew Point ( °F °C ) Humidity (%) Winds ( mph kmh ) Pressure ( in mb ) Visibility ( mi km ) Precip ( " mm )
12:53 am 00:53 Clear 42 5.6 2 -16.7 18 18 NNW 5 7 30.34 1027 10 16 0.00 0.00
1:53 am 01:53 Clear 39 3.9 6 -14.4 25 25 WNW 3 6 30.35 1028 10 16 0.00 0.00
2:53 am 02:53 Clear 39 3.9 5 -15 24 24 WSW 5 7 30.32 1027 10 16 0.00 0.00
3:53 am 03:53 Clear 37 2.8 7 -13.9 28 28 NW 6 9 30.34 1027 10 16 0.00 0.00
4:53 am 04:53 Clear 38 3.3 7 -13.9 27 27 WSW 3 6 30.36 1028 10 16 0.00 0.00
5:53 am 05:53 Clear 36 2.2 7 -13.9 30 30 W 3 6 30.37 1028 10 16 0.00 0.00
6:53 am 06:53 Sunny 38 3.3 7 -13.9 27 27 Calm 30.39 1029 10 16 0.00 0.00
7:53 am 07:53 Sunny 45 7.2 5 -15 19 19 WSW 3 6 30.39 1029 10 16 0.00 0.00
8:53 am 08:53 Sunny 48 8.9 5 -15 17 17 SE 6 9 30.40 1030 10 16 0.00 0.00
9:53 am 09:53 Sunny 52 11.1 3 -16.1 13 13 E 8 13 30.40 1029 10 16 0.00 0.00
10:53 am 10:53 Sunny 55 12.8 4 -15.6 12 12 E 8 13 30.38 1029 10 16 0.00 0.00
11:53 am 11:53 Sunny 57 13.9 3 -16.1 11 11 E 8 13 30.35 1028 10 16 0.00 0.00
12:53 pm 12:53 Sunny 59 15 3 -16.1 10 10 E 8 13 30.29 1026 10 16 0.00 0.00
1:53 pm 13:53 Sunny 59 15 2 -16.7 10 10 Calm 30.27 1025 10 16 0.00 0.00
2:53 pm 14:53 Sunny 60 15.6 3 -16.1 10 10 SSE 7 11 30.24 1024 10 16 0.00 0.00
3:53 pm 15:53 Sunny 62 16.7 2 -16.7 9 9 ESE 5 7 30.22 1023 10 16 0.00 0.00
4:53 pm 16:53 Sunny 61 16.1 1 -17.2 9 9 Calm 30.20 1023 10 16 0.00 0.00
5:53 pm 17:53 Clear 60 15.6 1 -17.2 9 9 Calm 30.21 1023 10 16 0.00 0.00
6:53 pm 18:53 Clear 57 13.9 5 -15 12 12 Calm 30.21 1023 10 16 0.00 0.00
7:53 pm 19:53 Clear 54 12.2 6 -14.4 14 14 W 3 6 30.20 1023 10 16 0.00 0.00
8:53 pm 20:53 Clear 50 10 9 -12.8 19 19 N 5 7 30.22 1023 10 16 0.00 0.00
9:53 pm 21:53 Clear 49 9.4 9 -12.8 20 20 W 5 7 30.21 1023 10 16 0.00 0.00
10:53 pm 22:53 Clear 47 8.3 9 -12.8 21 21 W 6 9 30.19 1023 10 16 0.00 0.00
11:53 pm 23:53 Clear 46 7.8 10 -12.2 23 23 WNW 7 11 30.18 1022 10 16 0.00 0.00

Powered by AerisWeather